Time,TemperatureF,DewpointF,PressureIn,WindDirection,WindDirectionDegrees,WindSpeedMPH,WindSpeedGustMPH,Humidity,HourlyPrecipIn,Conditions,Clouds,dailyrainin,SoftwareType,DateUTC
2013-07-17 00:00:00,73.2,72.0,30.18,NW,314,1.0,1.0,95,0.00,,,0.00,weatherlink.com 1.10,2013-07-17 04:00:00,
2013-07-17 00:15:00,73.0,72.0,30.18,NW,314,1.0,1.0,96,0.00,,,0.00,weatherlink.com 1.10,2013-07-17 04:15:00,
2013-07-17 00:30:00,72.7,72.0,30.18,NW,316,1.0,2.0,96,0.00,,,0.00,weatherlink.com 1.10,2013-07-17 04:30:00,
2013-07-17 00:45:00,72.9,72.0,30.18,NW,317,0.0,1.0,96,0.00,,,0.00,weatherlink.com 1.10,2013-07-17 04:45:00,
2013-07-17 01:00:00,73.0,71.0,30.18,NW,318,1.0,1.0,94,0.00,,,0.00,weatherlink.com 1.10,2013-07-17 05:00:00,
2013-07-17 01:15:00,72.4,72.0,30.17,NW,319,2.0,2.0,97,0.00,,,0.00,weatherlink.com 1.10,2013-07-17 05:15:00,
2013-07-17 01:30:00,72.3,71.0,30.17,NW,319,1.0,2.0,97,0.00,,,0.00,weatherlink.com 1.10,2013-07-17 05:30:00,
2013-07-17 01:45:00,71.9,71.0,30.17,NW,319,0.0,1.0,97,0.00,,,0.00,weatherlink.com 1.10,2013-07-17 05:45:00,
2013-07-17 02:00:00,72.1,71.0,30.16,NW,322,1.0,2.0,96,0.00,,,0.00,weatherlink.com 1.10,2013-07-17 06:00:00,
2013-07-17 02:15:00,71.6,70.0,30.16,NW,322,1.0,2.0,96,0.00,,,0.00,weatherlink.com 1.10,2013-07-17 06:15:00,
2013-07-17 02:30:00,71.4,71.0,30.16,NW,322,1.0,1.0,97,0.00,,,0.00,weatherlink.com 1.10,2013-07-17 06:30:00,
2013-07-17 02:45:00,71.1,70.0,30.16,NW,322,2.0,2.0,97,0.00,,,0.00,weatherlink.com 1.10,2013-07-17 06:45:00,
2013-07-17 03:00:00,71.3,71.0,30.16,NW,311,2.0,3.0,98,0.00,,,0.00,weatherlink.com 1.10,2013-07-17 07:00:00,
2013-07-17 03:15:00,71.4,71.0,30.16,NW,310,1.0,2.0,98,0.00,,,0.00,weatherlink.com 1.10,2013-07-17 07:15:00,
2013-07-17 03:30:00,71.0,70.0,30.16,NW,310,1.0,2.0,98,0.00,,,0.00,weatherlink.com 1.10,2013-07-17 07:30:00,
2013-07-17 03:45:00,71.0,70.0,30.16,NW,310,2.0,2.0,98,0.00,,,0.00,weatherlink.com 1.10,2013-07-17 07:45:00,
2013-07-17 04:00:00,70.7,70.0,30.17,NW,310,1.0,1.0,98,0.00,,,0.00,weatherlink.com 1.10,2013-07-17 08:00:00,
2013-07-17 04:15:00,70.6,70.0,30.17,NW,311,0.0,1.0,99,0.00,,,0.00,weatherlink.com 1.10,2013-07-17 08:15:00,
2013-07-17 04:30:00,70.6,70.0,30.17,NW,311,0.0,1.0,99,0.00,,,0.00,weatherlink.com 1.10,2013-07-17 08:30:00,
2013-07-17 04:45:00,70.4,70.0,30.18,NW,311,1.0,1.0,98,0.00,,,0.00,weatherlink.com 1.10,2013-07-17 08:45:00,
2013-07-17 05:00:00,70.2,70.0,30.18,NW,310,0.0,1.0,98,0.00,,,0.00,weatherlink.com 1.10,2013-07-17 09:00:00,
2013-07-17 05:15:00,70.0,70.0,30.18,NW,310,1.0,1.0,99,0.00,,,0.00,weatherlink.com 1.10,2013-07-17 09:15:00,
2013-07-17 05:30:00,69.8,70.0,30.18,NW,311,1.0,1.0,99,0.00,,,0.00,weatherlink.com 1.10,2013-07-17 09:30:00,
2013-07-17 05:45:00,69.7,69.0,30.19,NW,323,2.0,2.0,99,0.00,,,0.00,weatherlink.com 1.10,2013-07-17 09:45:00,
2013-07-17 06:00:00,69.8,70.0,30.19,NW,323,1.0,2.0,99,0.00,,,0.00,weatherlink.com 1.10,2013-07-17 10:00:00,
2013-07-17 06:16:00,69.8,70.0,30.19,NW,323,1.0,2.0,99,0.00,,,0.00,weatherlink.com 1.10,2013-07-17 10:16:00,
2013-07-17 06:31:00,70.0,70.0,30.19,NW,323,2.0,2.0,99,0.00,,,0.00,weatherlink.com 1.10,2013-07-17 10:31:00,
2013-07-17 06:46:00,70.9,71.0,30.20,NW,325,0.0,1.0,99,0.00,,,0.00,weatherlink.com 1.10,2013-07-17 10:46:00,
2013-07-17 07:01:00,73.5,73.0,30.20,NW,323,0.0,0.0,98,0.00,,,0.00,weatherlink.com 1.10,2013-07-17 11:01:00,
2013-07-17 07:16:00,75.7,73.0,30.20,NW,325,0.0,1.0,90,0.00,,,0.00,weatherlink.com 1.10,2013-07-17 11:16:00,
2013-07-17 07:31:00,76.2,72.0,30.20,NW,323,0.0,1.0,87,0.00,,,0.00,weatherlink.com 1.10,2013-07-17 11:31:00,
2013-07-17 07:46:00,76.8,72.0,30.20,NW,323,1.0,1.0,84,0.00,,,0.00,weatherlink.com 1.10,2013-07-17 11:46:00,
2013-07-17 08:01:00,78.2,72.0,30.20,NW,323,0.0,2.0,82,0.00,,,0.00,weatherlink.com 1.10,2013-07-17 12:01:00,
2013-07-17 08:16:00,79.5,73.0,30.20,NW,323,0.0,1.0,79,0.00,,,0.00,weatherlink.com 1.10,2013-07-17 12:16:00,
2013-07-17 08:31:00,80.3,73.0,30.20,NW,321,1.0,2.0,78,0.00,,,0.00,weatherlink.com 1.10,2013-07-17 12:31:00,
2013-07-17 08:46:00,81.0,72.0,30.20,NW,308,1.0,4.0,75,0.00,,,0.00,weatherlink.com 1.10,2013-07-17 12:46:00,
2013-07-17 09:01:00,81.8,72.0,30.21,WNW,297,3.0,4.0,73,0.00,,,0.00,weatherlink.com 1.10,2013-07-17 13:01:00,
2013-07-17 09:16:00,83.0,74.0,30.21,NNE,16,0.0,3.0,74,0.00,,,0.00,weatherlink.com 1.10,2013-07-17 13:16:00,
2013-07-17 09:31:00,83.9,74.0,30.21,NNW,348,0.0,3.0,72,0.00,,,0.00,weatherlink.com 1.10,2013-07-17 13:31:00,
2013-07-17 09:46:00,84.5,75.0,30.21,NW,317,3.0,7.0,72,0.00,,,0.00,weatherlink.com 1.10,2013-07-17 13:46:00,
2013-07-17 10:01:00,84.9,74.0,30.21,NNW,335,4.0,7.0,70,0.00,,,0.00,weatherlink.com 1.10,2013-07-17 14:01:00,
2013-07-17 10:16:00,86.4,76.0,30.21,NW,325,6.0,7.0,72,0.00,,,0.00,weatherlink.com 1.10,2013-07-17 14:16:00,
2013-07-17 10:31:00,86.9,77.0,30.21,NW,323,0.0,3.0,73,0.00,,,0.00,weatherlink.com 1.10,2013-07-17 14:31:00,
2013-07-17 10:46:00,86.5,73.0,30.21,NNE,13,6.0,8.0,65,0.00,,,0.00,weatherlink.com 1.10,2013-07-17 14:46:00,
2013-07-17 11:01:00,87.1,74.0,30.20,ENE,77,5.0,7.0,65,0.00,,,0.00,weatherlink.com 1.10,2013-07-17 15:01:00,
2013-07-17 11:16:00,87.7,74.0,30.20,NNW,338,1.0,4.0,64,0.00,,,0.00,weatherlink.com 1.10,2013-07-17 15:16:00,
2013-07-17 11:31:00,87.3,73.0,30.20,West,266,2.0,10.0,62,0.00,,,0.00,weatherlink.com 1.10,2013-07-17 15:31:00,
2013-07-17 11:46:00,87.7,74.0,30.19,NNW,341,6.0,7.0,63,0.00,,,0.00,weatherlink.com 1.10,2013-07-17 15:46:00,
2013-07-17 12:01:00,88.0,74.0,30.19,NNE,30,0.0,9.0,63,0.00,,,0.00,weatherlink.com 1.10,2013-07-17 16:01:00,
2013-07-17 12:16:00,89.1,72.0,30.18,ENE,60,1.0,5.0,58,0.00,,,0.00,weatherlink.com 1.10,2013-07-17 16:16:00,
2013-07-17 12:31:00,89.5,72.0,30.18,ENE,77,1.0,5.0,57,0.00,,,0.00,weatherlink.com 1.10,2013-07-17 16:31:00,
2013-07-17 12:47:00,89.6,72.0,30.18,ENE,65,1.0,5.0,57,0.00,,,0.00,weatherlink.com 1.10,2013-07-17 16:47:00,
2013-07-17 13:02:00,90.4,72.0,30.18,West,262,4.0,5.0,55,0.00,,,0.00,weatherlink.com 1.10,2013-07-17 17:02:00,
2013-07-17 13:17:00,90.7,72.0,30.17,NNW,332,5.0,5.0,55,0.00,,,0.00,weatherlink.com 1.10,2013-07-17 17:17:00,
2013-07-17 13:32:00,91.0,74.0,30.17,NNW,340,2.0,3.0,57,0.00,,,0.00,weatherlink.com 1.10,2013-07-17 17:32:00,
2013-07-17 13:47:00,90.9,73.0,30.17,NNE,25,4.0,6.0,55,0.00,,,0.00,weatherlink.com 1.10,2013-07-17 17:47:00,
2013-07-17 14:02:00,90.2,71.0,30.16,NW,305,1.0,5.0,54,0.00,,,0.00,weatherlink.com 1.10,2013-07-17 18:02:00,
2013-07-17 14:17:00,91.5,73.0,30.16,NW,313,1.0,6.0,54,0.00,,,0.00,weatherlink.com 1.10,2013-07-17 18:17:00,
2013-07-17 14:32:00,91.3,70.0,30.15,East,79,2.0,5.0,49,0.00,,,0.00,weatherlink.com 1.10,2013-07-17 18:32:00,
2013-07-17 14:47:00,91.5,70.0,30.15,West,263,3.0,5.0,49,0.00,,,0.00,weatherlink.com 1.10,2013-07-17 18:47:00,
2013-07-17 15:02:00,91.5,70.0,30.14,NW,309,2.0,8.0,49,0.00,,,0.00,weatherlink.com 1.10,2013-07-17 19:02:00,
2013-07-17 15:17:00,91.4,70.0,30.14,NW,306,2.0,5.0,50,0.00,,,0.00,weatherlink.com 1.10,2013-07-17 19:17:00,
2013-07-17 15:32:00,91.4,71.0,30.13,NNW,342,2.0,8.0,51,0.00,,,0.00,weatherlink.com 1.10,2013-07-17 19:32:00,
2013-07-17 15:47:00,92.6,71.0,30.12,NW,326,2.0,5.0,50,0.00,,,0.00,weatherlink.com 1.10,2013-07-17 19:47:00,
2013-07-17 16:02:00,92.2,71.0,30.12,NW,316,3.0,5.0,50,0.00,,,0.00,weatherlink.com 1.10,2013-07-17 20:02:00,
2013-07-17 16:17:00,92.5,69.0,30.11,ENE,65,1.0,3.0,46,0.00,,,0.00,weatherlink.com 1.10,2013-07-17 20:17:00,
2013-07-17 16:32:00,93.1,69.0,30.11,NNW,345,0.0,4.0,46,0.00,,,0.00,weatherlink.com 1.10,2013-07-17 20:32:00,
2013-07-17 16:47:00,93.9,70.0,30.11,NW,321,0.0,2.0,46,0.00,,,0.00,weatherlink.com 1.10,2013-07-17 20:47:00,
2013-07-17 17:02:00,93.4,70.0,30.11,West,274,0.0,3.0,46,0.00,,,0.00,weatherlink.com 1.10,2013-07-17 21:02:00,
2013-07-17 17:17:00,93.1,70.0,30.10,ENE,78,1.0,2.0,47,0.00,,,0.00,weatherlink.com 1.10,2013-07-17 21:17:00,
2013-07-17 17:32:00,93.9,71.0,30.10,East,85,1.0,2.0,48,0.00,,,0.00,weatherlink.com 1.10,2013-07-17 21:32:00,
2013-07-17 17:47:00,92.7,71.0,30.09,ENE,65,0.0,3.0,50,0.00,,,0.00,weatherlink.com 1.10,2013-07-17 21:47:00,
2013-07-17 18:02:00,92.7,72.0,30.09,NW,325,2.0,2.0,51,0.00,,,0.00,weatherlink.com 1.10,2013-07-17 22:02:00,
2013-07-17 18:17:00,92.7,73.0,30.09,NW,312,2.0,3.0,53,0.00,,,0.00,weatherlink.com 1.10,2013-07-17 22:17:00,
2013-07-17 18:32:00,92.6,72.0,30.08,NW,326,1.0,2.0,51,0.00,,,0.00,weatherlink.com 1.10,2013-07-17 22:32:00,
2013-07-17 18:47:00,93.8,78.0,30.08,NW,326,0.0,0.0,61,0.00,,,0.00,weatherlink.com 1.10,2013-07-17 22:47:00,
2013-07-17 19:02:00,92.2,78.0,30.07,NW,326,0.0,1.0,64,0.00,,,0.00,weatherlink.com 1.10,2013-07-17 23:02:00,
2013-07-17 19:17:00,90.4,76.0,30.07,NW,326,0.0,1.0,63,0.00,,,0.00,weatherlink.com 1.10,2013-07-17 23:17:00,
2013-07-17 19:32:00,88.1,76.0,30.07,NW,326,0.0,0.0,67,0.00,,,0.00,weatherlink.com 1.10,2013-07-17 23:32:00,
2013-07-17 19:47:00,85.1,75.0,30.08,NW,326,1.0,1.0,72,0.00,,,0.00,weatherlink.com 1.10,2013-07-17 23:47:00,
2013-07-17 20:02:00,83.2,77.0,30.07,NW,326,1.0,1.0,82,0.00,,,0.00,weatherlink.com 1.10,2013-07-18 00:02:00,
2013-07-17 20:17:00,81.3,75.0,30.08,NW,326,1.0,2.0,80,0.00,,,0.00,weatherlink.com 1.10,2013-07-18 00:17:00,
2013-07-17 20:32:00,80.6,74.0,30.08,NW,326,1.0,1.0,80,0.00,,,0.00,weatherlink.com 1.10,2013-07-18 00:32:00,
2013-07-17 20:47:00,79.6,76.0,30.08,NW,326,1.0,1.0,87,0.00,,,0.00,weatherlink.com 1.10,2013-07-18 00:47:00,
2013-07-17 21:02:00,79.1,75.0,30.09,NW,325,1.0,1.0,87,0.00,,,0.00,weatherlink.com 1.10,2013-07-18 01:02:00,
2013-07-17 21:17:00,79.1,74.0,30.09,NW,324,1.0,1.0,84,0.00,,,0.00,weatherlink.com 1.10,2013-07-18 01:17:00,
2013-07-17 21:32:00,79.3,73.0,30.09,NW,325,1.0,2.0,80,0.00,,,0.00,weatherlink.com 1.10,2013-07-18 01:32:00,
2013-07-17 21:47:00,79.5,73.0,30.09,NW,325,1.0,1.0,81,0.00,,,0.00,weatherlink.com 1.10,2013-07-18 01:47:00,
2013-07-17 22:02:00,78.5,74.0,30.09,NW,324,1.0,2.0,85,0.00,,,0.00,weatherlink.com 1.10,2013-07-18 02:02:00,
2013-07-17 22:17:00,78.2,73.0,30.10,NW,320,1.0,2.0,83,0.00,,,0.00,weatherlink.com 1.10,2013-07-18 02:17:00,
2013-07-17 22:32:00,78.3,74.0,30.10,NW,321,1.0,1.0,85,0.00,,,0.00,weatherlink.com 1.10,2013-07-18 02:32:00,
2013-07-17 22:47:00,78.4,73.0,30.09,NW,321,0.0,1.0,82,0.00,,,0.00,weatherlink.com 1.10,2013-07-18 02:47:00,
2013-07-17 23:02:00,78.8,72.0,30.09,NW,321,0.0,1.0,80,0.00,,,0.00,weatherlink.com 1.10,2013-07-18 03:02:00,
2013-07-17 23:17:00,78.7,72.0,30.09,NW,321,0.0,0.0,81,0.00,,,0.00,weatherlink.com 1.10,2013-07-18 03:17:00,
2013-07-17 23:32:00,78.9,72.0,30.09,NW,321,0.0,0.0,80,0.00,,,0.00,weatherlink.com 1.10,2013-07-18 03:32:00,
2013-07-17 23:47:00,79.1,72.0,30.09,NW,321,0.0,1.0,80,0.00,,,0.00,weatherlink.com 1.10,2013-07-18 03:47:00,